Location: Greenwich
(51.4790°N, 0.0090°E)
Time: 19:05:55
(UTC+01:00)

S-56A Canister/Altair - All Passes

Search period start: 19 April 2024 00:00
Search period end: 29 April 2024 00:00
Orbit: 639 x 2488 km, 38.9° (Epoch: 19 April)

Date Brightness Start Highest point End Pass type
(mag) Time Alt. Az. Time Alt. Az. Time Alt. Az.
19 Apr - 01:13:35 10° WSW 01:17:50 13° SW 01:22:31 10° SSW visible
19 Apr - 18:29:03 10° SSW 18:33:50 24° SSE 18:40:08 10° ESE daylight
19 Apr - 20:30:30 10° WSW 20:36:48 34° S 20:45:43 10° ESE visible
19 Apr - 22:33:26 10° WSW 22:40:28 28° SSW 22:49:54 10° SSE visible
20 Apr - 00:39:23 10° WSW 00:44:09 14° SW 00:49:34 10° S visible
20 Apr - 17:56:21 10° SSW 18:00:33 21° SSE 18:05:53 10° ESE daylight
20 Apr - 19:57:30 10° WSW 20:03:19 33° S 20:11:30 10° ESE daylight
20 Apr - 22:00:12 10° WSW 22:06:50 28° SSW 22:15:51 10° SE visible
21 Apr - 00:05:28 10° WSW 00:10:30 15° SSW 00:16:20 10° S visible
21 Apr - 17:23:45 10° SSW 17:27:19 17° SSE 17:31:38 10° ESE daylight
21 Apr - 19:24:31 10° SW 19:29:54 31° S 19:37:20 10° ESE daylight
21 Apr - 21:27:01 10° WSW 21:33:15 28° SSW 21:41:47 10° SE visible
21 Apr - 23:31:45 10° WSW 23:36:51 16° SSW 23:42:55 10° S visible
22 Apr - 16:51:19 10° S 16:54:07 14° SSE 16:57:20 10° ESE daylight
22 Apr - 18:51:35 10° SW 18:56:32 28° S 19:03:13 10° ESE daylight
22 Apr - 20:53:53 10° WSW 20:59:43 28° S 21:07:43 10° SE visible
22 Apr - 22:58:11 10° WSW 23:03:15 16° SSW 23:09:21 10° S visible
23 Apr - 16:19:14 10° SSE 16:20:56 11° SSE 16:22:46 10° SE daylight
23 Apr - 18:18:40 10° SW 18:23:12 26° SSE 18:29:09 10° ESE daylight
23 Apr - 20:20:47 10° WSW 20:26:14 28° S 20:33:41 10° SE daylight
23 Apr - 22:24:43 10° WSW 22:29:40 17° SSW 22:35:43 10° S visible
24 Apr - 17:45:48 10° SW 17:49:55 23° SSE 17:55:09 10° ESE daylight
24 Apr - 19:47:44 10° WSW 19:52:48 27° S 19:59:39 10° SE daylight
24 Apr - 21:51:22 10° WSW 21:56:08 18° SSW 22:02:01 10° SSE visible
25 Apr - 17:12:58 10° SSW 17:16:40 21° SSE 17:21:10 10° ESE daylight
25 Apr - 19:14:42 10° WSW 19:19:25 26° S 19:25:40 10° SE daylight
25 Apr - 21:18:04 10° WSW 21:22:37 18° SSW 21:28:17 10° SSE visible
26 Apr - 16:40:09 10° SSW 16:43:26 18° SSE 16:47:15 10° ESE daylight
26 Apr - 18:41:41 10° SW 18:46:04 25° S 18:51:45 10° SE daylight
26 Apr - 20:44:51 10° WSW 20:49:09 18° SSW 20:54:32 10° SSE visible
27 Apr - 16:07:24 10° SSW 16:10:13 16° SSE 16:13:21 10° ESE daylight
27 Apr - 18:08:40 10° SW 18:12:45 23° S 18:17:53 10° SE daylight
27 Apr - 20:11:39 10° WSW 20:15:44 18° SSW 20:20:48 10° SSE daylight
28 Apr - 15:34:43 10° S 15:37:00 14° SSE 15:39:27 10° SE daylight
28 Apr - 17:35:41 10° SW 17:39:28 22° S 17:44:05 10° SE daylight
28 Apr - 19:38:29 10° WSW 19:42:20 18° SSW 19:47:04 10° SSE daylight
